Preview of NWS' New Version of Forecast
This preview is not operational and should not be used for support decisions.

Regional Weather Roundup (RWR)

Issued by National Weather Service (NWS)

                            
000
ASUS46 KSEW 171110
RWRWA 

WASHINGTON REGIONAL WEATHER ROUNDUP
NATIONAL WEATHER SERVICE SEATTLE WA
400 AM PDT TUE SEP 17 2019

NOTE:"FAIR" INDICATES FEW OR NO CLOUDS BELOW 12,000 FEET WITH NO 
SIGNIFICANT WEATHER AND/OR OBSTRUCTIONS TO VISIBILITY.

WAZ507-509-555>559-171200-
SEATTLE, TACOMA, EVERETT, AND VICINITY
  
CITY           SKY/WX    TMP DP  RH WIND       PRES   REMARKS
EVERETT        CLOUDY    56  49  77 SE9G17    29.81F                  
BOEING FIELD   CLOUDY    56  51  84 SE9       29.81F                  
RENTON         CLOUDY    57  51  80 SE5       29.81F                  
SEATAC AIRPORT CLOUDY    57  49  74 SE10      29.81F                  
JBLM-MCCHORD   CLOUDY    58  54  86 S9        29.81F                  
PUYALLUP       CLOUDY    59  50  72 S7G13     29.82F                  
BREMERTON      CLOUDY    55  51  86 S7        29.80F                  
JBLM-FT LEWIS  CLOUDY    57  56  98 E9        29.80F                  
TACOMA NARROWS CLOUDY    56  49  77 S8        29.81F                  
$$
 
WAZ001-503-506-510-514-515-171200-
NORTH INTERIOR
  
CITY           SKY/WX    TMP DP  RH WIND       PRES   REMARKS
BELLINGHAM     CLOUDY    60  49  66 S16G24    29.75F                  
FRIDAY HARBOR  CLOUDY    57  51  80 SE14      29.74F                  
EASTSOUND      CLOUDY    59  54  82 S15G23    29.71F                  
PORT ANGELES   CLOUDY    51  51 100 CALM      29.71F                  
EDIZ HOOK      CLOUDY    51  50  96 N5        29.70F                  
PORT TOWNSEND  MOCLDY    57  54  88 SE12G18   29.74F                  
NAS WHIDBEY    CLOUDY    62  50  64 SE21G32   29.78F                  
ARLINGTON      CLOUDY    58  50  75 SE13      29.80F                  
BURLINGTON     CLOUDY    59  50  72 SE14G21   29.77F                  
$$
 
WAZ020-022-039-040-504-511-512-171200-
SOUTHWEST INTERIOR
  
CITY           SKY/WX    TMP DP  RH WIND       PRES   REMARKS
SHELTON        CLOUDY    57  51  80 SE8       29.77F                  
OLYMPIA        CLOUDY    56  51  84 SW7       29.80F                  
CHEHALIS       CLOUDY    57  55  94 S7G13     29.81F                  
KELSO          CLOUDY    59  53  80 S16G28    29.84F                  
VANCOUVER      CLOUDY    59  52  77 SE5       29.88F                  
SCAPPOOSE, OR  CLOUDY    57  54  89 SE3       29.86F                  
PORTLAND, OR   CLOUDY    60  52  74 S10       29.88F                  
$$
 
WAZ021-516-517-171200-
WASHINGTON COAST
  
CITY           SKY/WX    TMP DP  RH WIND       PRES   REMARKS
FORKS          LGT RAIN  56  54  93 SE12G22   29.65F                  
HOQUIAM        LGT RAIN  58  56  93 SE16      29.74F                  
ASTORIA, OR    LGT RAIN  59  54  83 SE7       29.77F                  
$$
 
WAZ019-023-024-040-567>569-171200-
CASCADE MOUNTAINS AND COLUMBIA GORGE
  
CITY           SKY/WX    TMP DP  RH WIND       PRES   REMARKS
STAMPEDE PASS  NOT AVBL                                               
TROUTDALE, OR  LGT RAIN  57  51  80 VRB3      29.89F                  
HOOD RIVER, OR CLOUDY    50  48  93 CALM      29.92S                  
THE DALLES, OR CLOUDY    51  46  83 CALM      29.92S                  
$$

WAZ026-027-041>044-520-521-171200-
EAST SLOPES
  
CITY           SKY/WX    TMP DP  RH WIND       PRES   REMARKS
OMAK           CLOUDY    55  49  80 S7        29.83S                  
WENATCHEE      MOCLDY    50  42  74 SW3       29.84S                  
ELLENSBURG     MOCLDY    46  41  82 E3        29.87F                  
YAKIMA         PTCLDY    42  38  85 W3        29.89S                  
SUNNYSIDE ARPT MOSUNNY   44  42  96 NE3       29.89S                  
YAKIMA TC      PTSUNNY   45  42  91 CALM      29.87S                  
$$

WAZ028-034-035-171200-
COLUMBIA BASIN
  
CITY           SKY/WX    TMP DP  RH WIND       PRES   REMARKS
EPHRATA        CLOUDY    52  50  93 NE5       29.85S                  
MOSES LAKE     PTCLDY    49  45  86 SE6       29.86S                  
PASCO          MOCLDY    55  47  74 SW8       29.90R                  
RICHLAND ARPT  PTSUNNY   55  45  68 S10       29.90                   
HERMISTON, OR  MOCLDY    56  44  64 SW10      29.91R                  
$$

WAZ036>038-171200-
NORTHEAST WASHINGTON
  
CITY           SKY/WX    TMP DP  RH WIND       PRES   REMARKS
SPOKANE GEIGER MOCLDY    49  46  90 S7        29.90S                  
SPOKANE FELTS  CLOUDY    52  47  83 N3        29.90S                  
FAIRCHILD AFB  CLEAR     46  46 100 SE6       29.89S                  
COEURDALENE,ID CLOUDY    51  47  86 CALM      29.91S                  
DEER PARK      CLOUDY    51  47  86 S5        29.91R                  
$$

WAZ029>033-171200-
SOUTHEAST WASHINGTON
  
CITY           SKY/WX    TMP DP  RH WIND       PRES   REMARKS
PULLMAN        MOCLDY    49  46  90 CALM      29.93S                  
LEWISTON, ID   CLOUDY    55  48  77 CALM      29.91S                  
WALLA WALLA    PTCLDY    55  45  68 S10       29.93R                  
PENDLETON, OR  MOCLDY    50  43  77 SE7       29.93S                  
$$